GEFSNE_500_meanwind_168.txt.gz
Wind_Speed
28 28 29 29 28 28 27 27 27 28 28 28 28 29 29 29 29 29 29 28 29 29 29 28 28 28 28 28 29 29 30 29 29 29 29 30 30 31
27 27 27 27 27 27 27 26 27 26 25 26 26 27 28 27 28 28 28 28 27 28 27 27 27 27 27 27 28 29 29 29 29 29 28 29 30 29
25 25 25 25 25 25 26 26 26 25 25 24 25 25 25 25 26 26 26 26 26 26 26 26 26 26 26 26 26 27 28 29 29 29 28 28 28 28
23 23 22 23 23 23 23 23 24 24 23 22 23 23 23 23 24 24 24 25 25 25 25 25 24 25 24 24 24 25 26 26 27 26 26 27 26 26
21 20 20 20 20 20 20 20 21 21 21 21 22 22 22 21 21 22 22 22 22 23 23 23 23 23 23 22 23 23 23 24 24 23 24 24 24 24
17 17 17 17 17 17 18 18 18 19 20 20 20 20 20 19 19 19 19 19 20 21 21 21 21 21 21 21 21 21 22 21 21 21 21 21 22 23
14 15 15 15 15 15 16 17 17 17 17 17 17 17 17 17 16 16 17 17 17 17 18 18 19 19 19 19 19 19 19 19 20 19 19 20 21 22
14 13 13 12 12 12 13 13 13 13 13 13 13 12 12 13 13 14 14 14 14 14 15 15 15 16 16 16 17 17 17 18 18 18 18 19 19 20
11 11 10 10 10 10 9 9 8 8 8 9 8 8 9 10 10 11 11 12 12 12 12 12 13 13 14 14 14 15 15 15 16 17 18 19 19 19
9 8 8 7 7 7 6 6 5 5 4 4 5 5 6 6 7 7 7 8 8 9 10 10 11 12 11 12 12 13 13 14 15 16 17 18 19 20
8 7 7 7 7 6 4 3 3 2 2 2 3 4 4 4 3 4 5 5 5 6 7 7 8 9 10 11 12 12 12 13 14 15 17 18 20 21
8 8 7 6 6 5 4 4 3 2 1 0 1 2 3 2 1 2 3 4 4 5 5 6 7 9 9 10 11 11 11 12 14 15 17 19 20 21
9 9 9 7 6 6 5 5 4 3 3 2 1 0 1 2 2 2 3 3 4 4 5 7 7 8 8 9 10 11 12 13 15 16 17 18 20 20
9 9 9 9 7 7 6 5 4 4 4 3 2 1 1 1 1 2 2 3 3 5 6 7 7 7 9 10 11 12 13 14 16 17 18 19 20 21
9 9 9 9 9 8 7 6 5 4 4 4 3 2 1 2 3 2 2 2 3 5 6 6 6 8 9 10 11 12 14 16 17 18 19 20 21 22
10 10 10 9 9 8 7 6 6 5 4 4 3 3 3 3 3 3 3 4 5 6 6 7 8 10 10 11 12 13 15 17 18 19 20 22 23 24
10 10 10 9 8 8 8 8 7 6 5 4 3 3 4 4 3 4 5 5 6 7 7 8 9 10 11 12 13 15 17 18 20 21 21 22 23 25
10 10 9 9 9 8 8 7 7 6 6 5 4 4 4 4 4 5 5 6 7 8 9 10 10 12 13 15 17 18 19 20 21 22 23 23 23 25
9 9 8 8 8 8 8 8 7 7 6 5 5 5 5 6 6 6 7 8 8 9 11 12 13 14 15 16 18 20 21 22 23 23 24 25 25 26
7 7 8 8 8 8 8 8 7 7 6 6 6 6 7 8 8 9 10 10 11 11 13 14 16 17 18 19 20 21 23 24 24 25 25 26 27 27
7 7 8 7 7 8 8 7 7 7 7 8 8 8 9 9 10 11 12 12 13 14 15 17 18 19 20 21 21 22 24 25 26 26 27 28 28 28
7 7 8 8 8 8 8 8 8 9 9 10 10 11 10 11 12 12 12 14 15 17 18 19 20 21 22 23 24 25 26 27 27 28 29 30 31 31
8 8 8 9 9 10 10 10 10 11 11 11 12 12 13 14 14 15 16 17 18 20 21 21 23 24 25 26 27 28 28 29 29 29 30 32 32 33

GEFSNE_500_meanwind_174.txt.gz
Wind_Speed
26 26 26 26 27 27 27 27 27 27 27 27 28 29 30 30 31 31 32 32 32 32 32 32 32 32 32 31 31 31 31 32 32 32 31 30 29 29
24 24 24 23 24 25 26 26 26 26 26 26 26 26 27 27 29 29 30 31 31 31 31 31 31 31 31 31 31 31 31 32 31 31 31 30 30 30
22 22 22 22 22 24 24 24 25 25 25 24 24 25 25 25 25 27 28 29 30 30 30 29 29 28 29 29 30 30 30 30 30 30 30 30 30 30
20 20 20 20 21 22 22 23 23 22 22 22 22 23 24 25 24 24 26 26 26 27 27 27 28 28 27 28 28 29 29 30 30 30 31 31 31 30
18 18 18 19 19 19 19 19 20 20 20 20 21 22 23 23 22 22 23 24 24 25 25 25 25 26 26 26 27 27 28 28 29 29 29 30 29 29
16 17 17 17 17 17 17 17 17 18 18 19 19 19 19 19 20 19 20 19 19 20 21 22 23 24 23 23 24 25 25 26 26 27 27 27 28 28
14 14 14 15 14 15 15 15 16 15 16 16 16 15 16 16 16 16 16 16 16 16 17 18 19 20 20 20 21 22 22 23 23 23 24 25 26 27
12 12 12 13 13 13 13 13 13 13 13 13 13 12 12 13 13 13 14 14 14 14 14 15 16 16 17 18 18 19 19 20 20 21 22 23 23 24
11 11 12 12 11 10 10 10 10 10 10 10 9 8 9 10 10 10 11 11 11 12 12 12 13 13 14 15 16 17 17 18 19 20 21 22 22 22
10 11 11 11 10 9 9 9 9 8 7 6 6 5 5 6 7 7 8 8 8 9 9 9 10 11 12 13 13 14 14 15 16 18 19 20 20 20
11 11 11 10 9 8 8 8 8 8 6 5 5 4 4 5 5 5 5 5 6 6 7 7 8 9 10 11 13 13 14 15 16 17 17 18 19 20
11 10 10 9 8 8 8 8 7 6 5 5 4 3 2 3 3 3 3 4 5 5 6 6 8 9 10 12 13 14 15 15 16 17 17 18 18 19
11 10 9 8 8 8 9 8 7 6 5 5 4 3 2 2 2 3 3 4 4 5 6 7 8 9 11 12 13 14 15 16 16 17 18 19 20 20
10 9 9 8 8 8 9 9 7 6 5 5 5 4 3 3 3 4 4 4 4 6 7 8 9 10 11 12 13 13 14 15 16 17 19 20 21 22
9 9 9 9 9 9 9 8 8 7 6 5 5 4 4 4 4 4 5 6 6 7 8 9 10 11 11 12 13 14 15 16 17 18 19 20 21 22
9 9 9 9 9 9 9 8 8 7 7 6 6 6 5 4 5 6 6 7 7 9 9 10 11 12 13 14 15 15 16 17 18 19 20 21 22 23
8 9 9 9 9 8 8 8 7 7 7 6 6 6 6 6 6 7 7 8 9 10 11 12 13 13 14 16 17 17 18 19 20 20 21 22 23 25
9 9 9 9 8 8 8 9 8 7 8 8 7 7 6 7 7 8 9 10 11 12 13 14 15 16 17 17 19 19 20 20 21 21 22 23 23 25
9 9 9 10 9 9 9 9 9 9 9 9 9 9 9 9 9 10 11 12 13 14 15 16 17 18 18 18 19 21 21 21 21 22 23 25 25 26
10 10 10 10 10 10 11 11 11 11 11 11 11 11 11 11 12 13 13 14 15 16 17 18 19 20 20 20 20 22 24 24 24 25 26 27 27 27
11 11 11 11 11 12 12 12 12 12 13 13 13 13 14 14 15 15 16 17 17 18 19 20 21 22 22 22 23 23 25 26 27 27 27 28 28 28
12 13 13 13 13 13 14 14 14 14 15 15 15 15 16 17 17 17 18 19 20 21 22 22 24 24 24 24 25 26 26 27 28 28 29 29 30 30
14 15 15 15 15 15 16 16 16 16 16 17 17 19 19 20 20 21 21 22 23 23 24 24 25 25 26 27 27 28 28 29 29 29 30 31 33 33

GEFSNE_500_meanwind_180.txt.gz
Wind_Speed
25 25 25 25 25 25 25 26 25 25 26 26 26 25 25 26 27 28 28 29 30 32 32 33 32 33 33 33 33 33 32 32 32 32 32 32 32 32
23 22 23 23 23 23 23 24 24 24 23 24 24 24 24 24 25 26 26 27 28 30 31 31 31 31 32 32 33 33 33 32 32 32 31 31 31 32
20 20 21 22 22 22 21 21 22 22 22 21 21 22 23 23 24 25 26 27 27 28 29 29 29 29 30 30 31 31 31 31 31 31 31 31 32 32
17 17 18 19 19 18 19 19 20 20 21 21 20 21 22 22 22 23 24 25 25 26 27 27 27 28 27 27 28 28 29 30 30 30 30 31 31 32
15 15 15 15 15 15 16 17 18 19 19 20 20 20 21 21 21 22 22 22 23 23 23 23 24 24 24 24 25 26 27 28 28 29 29 30 31 31
14 14 14 13 13 13 14 15 16 17 18 19 19 18 18 19 19 19 19 20 20 20 20 20 21 21 22 22 23 24 24 25 27 28 28 29 29 30
12 12 11 12 12 12 13 13 14 15 16 16 16 15 15 16 16 16 16 16 16 16 17 18 19 20 20 20 21 21 22 23 24 25 26 27 27 28
10 9 10 10 11 11 11 12 12 13 12 13 13 13 13 13 13 13 14 15 15 15 15 16 16 17 17 18 19 20 21 22 22 22 23 24 25 26
9 9 9 9 10 10 10 11 11 11 11 10 10 10 10 10 11 11 12 13 13 14 14 14 15 15 15 16 17 18 19 20 20 21 21 23 24 25
9 9 9 9 10 9 9 9 9 9 9 8 8 7 7 8 8 9 10 10 11 12 12 12 13 13 13 13 15 16 17 18 19 19 20 20 21 22
9 8 8 9 9 9 8 8 9 9 8 7 7 6 7 7 7 7 8 9 9 10 11 11 12 12 13 13 14 14 15 15 16 18 18 19 20 21
8 8 9 9 8 9 8 8 8 8 8 7 6 7 6 6 6 6 7 7 7 8 9 10 10 11 11 13 14 14 14 15 16 17 18 19 20 21
8 8 8 8 8 8 8 8 8 8 7 6 6 6 6 6 6 6 7 7 8 9 10 10 10 11 12 13 13 14 14 15 16 17 17 19 20 20
9 8 8 8 8 8 8 8 8 8 7 7 6 6 6 6 6 6 7 8 9 9 10 10 10 11 12 13 14 15 15 15 15 16 17 18 20 21
9 9 9 8 8 8 8 8 7 7 7 7 7 7 7 6 6 7 7 8 9 10 11 11 12 13 13 14 15 15 15 16 17 18 18 19 20 21
9 9 9 9 9 9 9 8 8 8 8 8 8 8 7 8 9 10 10 10 11 12 13 14 15 15 15 15 16 16 17 18 19 20 20 21 22 23
11 11 10 10 10 9 9 9 10 10 10 10 10 9 9 10 10 11 11 12 13 14 15 15 15 16 16 17 18 19 20 20 21 22 22 23 23 24
12 12 11 11 11 11 11 11 12 12 12 12 12 12 12 12 12 13 13 14 14 15 16 16 17 17 18 18 19 20 21 22 23 23 24 24 25 26
13 13 13 13 13 12 13 12 13 13 14 14 14 14 14 14 15 15 15 15 16 16 17 18 19 19 20 20 20 22 23 24 24 25 25 26 27 27
14 14 14 14 14 14 14 14 14 15 16 16 16 16 16 16 17 17 17 17 18 19 19 19 20 21 23 23 23 24 25 26 27 27 27 27 27 28
15 15 15 16 16 16 16 16 17 17 17 18 18 18 18 18 18 19 19 20 20 21 21 21 22 24 25 25 25 25 26 27 27 28 28 29 29 29
17 18 18 18 18 17 17 18 18 19 20 20 20 20 20 20 21 21 22 22 23 24 24 25 25 26 26 27 27 27 28 28 29 30 30 31 31 31
19 20 20 20 20 20 20 21 21 21 21 22 22 22 22 23 24 24 25 25 26 26 27 27 27 27 27 28 29 29 30 30 30 30 31 31 32 32

GEFSNE_500_meanwind_186.txt.gz
Wind_Speed
26 26 25 25 25 25 26 26 26 26 25 25 25 26 26 26 26 26 26 27 27 27 27 29 30 31 32 32 33 33 33 33 32 32 31 31 31 31
25 25 24 24 24 24 24 24 24 24 23 22 22 23 24 24 24 24 25 25 25 26 26 27 29 30 31 32 32 32 32 32 32 32 32 32 31 31
23 22 22 21 21 21 21 21 22 22 21 21 21 22 22 22 22 22 22 23 23 24 25 25 26 28 29 30 30 31 31 31 32 32 32 32 31 32
20 19 18 18 18 19 18 18 18 18 19 20 20 20 20 20 20 20 21 21 21 22 23 24 24 25 26 27 27 28 28 28 29 29 30 30 30 31
18 17 16 16 17 16 16 16 16 17 18 19 18 18 18 19 19 19 19 20 20 21 21 22 22 22 23 24 24 25 25 25 26 26 27 28 29 29
17 17 16 15 14 14 15 16 16 16 17 17 16 16 16 17 17 18 18 19 19 18 18 19 21 21 21 22 22 23 23 23 24 25 25 26 27 28
16 15 14 13 13 14 14 14 14 15 15 14 15 15 15 15 15 16 16 16 16 16 16 16 17 18 19 19 20 21 21 22 22 23 24 25 25 26
15 14 14 13 13 13 13 13 13 13 13 13 13 14 15 14 14 13 14 14 14 15 15 15 15 16 17 18 19 19 20 20 21 22 23 24 24 25
14 14 13 13 12 12 12 12 13 13 13 14 13 13 14 14 13 13 13 12 13 13 14 14 14 14 14 15 16 17 17 18 20 21 22 21 22 23
15 14 13 12 12 12 12 12 12 13 13 13 13 13 13 13 12 12 13 12 12 11 12 13 13 13 13 13 14 14 16 17 18 19 20 21 21 21
15 14 14 13 12 13 12 12 12 12 12 12 11 12 12 11 10 10 10 11 11 11 11 11 12 13 14 14 14 14 15 16 17 18 18 19 20 20
15 15 14 14 14 13 13 13 12 12 12 11 11 11 11 10 10 9 9 10 10 11 11 12 12 12 13 13 14 15 15 16 17 17 18 19 20 21
15 15 14 14 14 14 14 13 12 13 13 12 11 11 11 10 10 10 10 10 10 11 11 11 12 13 13 14 15 16 16 16 17 18 18 19 20 21
16 15 14 14 14 14 14 13 13 13 12 12 12 12 12 11 11 10 11 11 11 12 13 13 13 14 15 16 16 16 17 17 18 19 20 20 21 21
16 16 15 15 15 15 15 15 14 13 13 13 13 13 13 12 12 12 12 12 12 13 14 14 15 15 17 18 18 19 19 19 20 21 21 22 22 22
17 17 17 16 16 15 15 16 16 15 15 14 14 13 13 13 13 14 14 14 14 14 14 14 16 17 18 19 19 20 21 21 21 22 22 23 23 24
18 18 18 17 17 17 17 17 17 17 17 16 15 14 14 14 15 15 16 16 16 15 16 16 17 18 19 19 20 20 21 21 22 23 24 24 25 25
19 19 19 19 18 18 18 18 18 19 18 17 17 17 17 17 17 17 17 17 17 17 18 19 19 20 20 20 21 22 23 24 24 25 26 26 26 26
20 20 20 21 20 20 20 20 20 20 19 18 18 18 18 19 19 19 19 19 19 19 20 21 22 22 22 22 22 24 24 25 26 26 27 27 27 28
21 21 22 22 22 22 22 22 21 21 20 20 20 20 20 20 20 21 21 21 21 21 22 23 24 24 25 25 25 25 26 27 27 28 29 29 29 29
23 23 24 24 23 23 23 23 23 22 22 22 22 22 22 22 23 23 23 23 23 23 23 23 24 26 27 27 27 27 27 28 29 30 30 30 30 30
24 25 25 25 25 25 24 24 24 24 24 24 24 24 25 25 25 25 25 25 25 25 25 26 26 27 28 28 28 28 28 29 30 30 30 30 30 30
26 27 27 27 27 27 26 26 26 26 26 26 27 27 28 28 27 28 28 28 28 28 28 29 29 29 28 28 29 29 30 30 30 31 30 30 31 32